| time (UTC) | temp C | wind direction | speed KPH | gust KPH | rain 1hr cm | rain 24hr cm | rain mn cm | humidity % | barometer mb |
| 20260507060526 | 12 | 272 | 1.6 | 3.2 | 0.00 | 0.36 | 0.00 | 97 | 1006.6 |
| 20260507055526 | 12 | 218 | 1.6 | 4.8 | 0.00 | 0.36 | 0.00 | 98 | 1006.6 |
| 20260507054526 | 12 | 270 | 1.6 | 3.2 | 0.00 | 0.36 | 0.00 | 98 | 1006.8 |
| 20260507053528 | 12 | 288 | 1.6 | 3.2 | 0.00 | 0.36 | 0.00 | 98 | 1006.9 |
| 20260507052547 | 13 | 253 | 0.0 | 4.8 | 0.00 | 0.36 | 0.00 | 98 | 1006.9 |
| 20260507051527 | 13 | 304 | 1.6 | 3.2 | 0.00 | 0.36 | 0.00 | 98 | 1006.8 |
| 20260507050527 | 13 | 275 | 3.2 | 4.8 | 0.00 | 0.36 | 0.00 | 98 | 1006.6 |
| 20260507045527 | 13 | 285 | 1.6 | 3.2 | 0.00 | 0.36 | 0.00 | 98 | 1006.9 |
| 20260507044529 | 13 | 270 | 3.2 | 4.8 | 0.00 | 0.36 | 0.00 | 99 | 1007.0 |
| 20260507043529 | 14 | 298 | 3.2 | 4.8 | 0.00 | 0.36 | 0.00 | 99 | 1006.8 |
| 20260507042527 | 14 | 265 | 3.2 | 4.8 | 0.00 | 0.36 | 0.00 | 99 | 1006.8 |
| 20260507041528 | 14 | 270 | 3.2 | 4.8 | 0.00 | 0.36 | 0.00 | 99 | 1006.8 |
| 20260507040527 | 14 | 278 | 4.8 | 8.0 | 0.00 | 0.36 | 0.00 | 100 | 1006.8 |
| 20260507035528 | 15 | 251 | 1.6 | 4.8 | 0.00 | 0.36 | 0.36 | 99 | 1007.0 |
| 20260507034528 | 15 | 261 | 3.2 | 6.4 | 0.00 | 0.36 | 0.36 | 99 | 1006.7 |
| 20260507033529 | 15 | 255 | 3.2 | 4.8 | 0.00 | 0.36 | 0.36 | 99 | 1006.6 |
| 20260507032530 | 15 | 233 | 1.6 | 3.2 | 0.00 | 0.36 | 0.36 | 100 | 1006.6 |
| 20260507031548 | 15 | 265 | 3.2 | 6.4 | 0.00 | 0.36 | 0.36 | 99 | 1006.3 |
| 20260507030528 | 15 | 236 | 3.2 | 3.2 | 0.00 | 0.36 | 0.36 | 99 | 1006.2 |
| 20260507025548 | 15 | 197 | 3.2 | 4.8 | 0.00 | 0.36 | 0.36 | 99 | 1005.9 |
| 20260507024529 | 15 | 208 | 1.6 | 4.8 | 0.00 | 0.36 | 0.36 | 99 | 1005.9 |
| 20260507023529 | 15 | 209 | 3.2 | 4.8 | 0.00 | 0.36 | 0.36 | 99 | 1006.0 |
| 20260507022549 | 15 | 171 | 3.2 | 6.4 | 0.00 | 0.36 | 0.36 | 99 | 1006.1 |
| 20260507021520 | 15 | 244 | 3.2 | 8.0 | 0.00 | 0.36 | 0.36 | 99 | 1006.0 |
| 20260507020532 | 15 | 251 | 3.2 | 6.4 | 0.00 | 0.36 | 0.36 | 99 | 1006.0 |
| 20260507015520 | 15 | 259 | 3.2 | 9.7 | 0.00 | 0.36 | 0.36 | 99 | 1006.0 |
| 20260507014528 | 15 | 190 | 3.2 | 6.4 | 0.00 | 0.36 | 0.36 | 99 | 1006.0 |
| 20260507013529 | 15 | 155 | 3.2 | 4.8 | 0.00 | 0.36 | 0.36 | 99 | 1006.0 |
| 20260507012550 | 15 | 140 | 3.2 | 6.4 | 0.00 | 0.36 | 0.36 | 99 | 1006.1 |
| 20260507011524 | 15 | 105 | 3.2 | 9.7 | 0.00 | 0.36 | 0.36 | 99 | 1006.2 |
| 20260507010521 | 15 | 237 | 3.2 | 8.0 | 0.00 | 0.36 | 0.36 | 99 | 1006.2 |
| 20260507005521 | 15 | 252 | 3.2 | 8.0 | 0.00 | 0.36 | 0.36 | 99 | 1006.2 |
| 20260507004550 | 15 | 204 | 3.2 | 6.4 | 0.00 | 0.36 | 0.36 | 99 | 1006.3 |
| 20260507003521 | 15 | 114 | 3.2 | 8.0 | 0.00 | 0.36 | 0.36 | 99 | 1006.3 |
| 20260507002518 | 15 | 127 | 3.2 | 11.3 | 0.00 | 0.36 | 0.36 | 100 | 1006.2 |
| 20260507001521 | 15 | 164 | 3.2 | 6.4 | 0.03 | 0.36 | 0.36 | 100 | 1006.3 |
| 20260507000520 | 15 | 228 | 1.6 | 6.4 | 0.10 | 0.36 | 0.36 | 99 | 1006.1 |
| 20260506235519 | 15 | 141 | 3.2 | 11.3 | 0.10 | 0.36 | 0.36 | 100 | 1006.0 |
| 20260506234519 | 15 | 127 | 3.2 | 12.9 | 0.10 | 0.36 | 0.36 | 100 | 1005.9 |
| 20260506233518 | 15 | 150 | 3.2 | 12.9 | 0.10 | 0.36 | 0.36 | 100 | 1005.9 |
| 20260506232519 | 15 | 172 | 1.6 | 6.4 | 0.10 | 0.36 | 0.36 | 99 | 1005.9 |
| 20260506231520 | 15 | 147 | 3.2 | 6.4 | 0.10 | 0.36 | 0.36 | 99 | 1005.9 |
| 20260506230519 | 15 | 168 | 3.2 | 9.7 | 0.03 | 0.28 | 0.28 | 99 | 1006.0 |
| 20260506225516 | 15 | 186 | 3.2 | 8.0 | 0.00 | 0.25 | 0.25 | 99 | 1006.0 |
| 20260506224537 | 15 | 241 | 3.2 | 4.8 | 0.00 | 0.25 | 0.25 | 99 | 1006.1 |
| 20260506223519 | 15 | 168 | 3.2 | 8.0 | 0.00 | 0.25 | 0.25 | 98 | 1006.1 |
| 20260506222522 | 15 | 138 | 3.2 | 11.3 | 0.00 | 0.25 | 0.25 | 98 | 1006.1 |
| 20260506221517 | 15 | 143 | 4.8 | 14.5 | 0.00 | 0.25 | 0.25 | 98 | 1006.2 |
| 20260506220538 | 15 | 137 | 3.2 | 14.5 | 0.00 | 0.25 | 0.25 | 98 | 1006.4 |
| 20260506215521 | 15 | 146 | 3.2 | 8.0 | 0.00 | 0.25 | 0.25 | 97 | 1006.3 |
| 20260506214519 | 15 | 189 | 3.2 | 6.4 | 0.00 | 0.25 | 0.25 | 96 | 1006.5 |
| 20260506213517 | 15 | 251 | 4.8 | 16.1 | 0.03 | 0.25 | 0.25 | 96 | 1006.6 |
| 20260506212538 | 15 | 254 | 3.2 | 12.9 | 0.03 | 0.25 | 0.25 | 96 | 1006.7 |
| 20260506211518 | 15 | 274 | 3.2 | 11.3 | 0.05 | 0.25 | 0.25 | 96 | 1006.8 |
| 20260506210518 | 15 | 162 | 3.2 | 8.0 | 0.05 | 0.25 | 0.25 | 96 | 1006.8 |
| 20260506205521 | 15 | 282 | 4.8 | 12.9 | 0.05 | 0.25 | 0.25 | 95 | 1006.8 |
| 20260506204518 | 16 | 99 | 1.6 | 8.0 | 0.05 | 0.25 | 0.25 | 95 | 1007.0 |
| 20260506203518 | 16 | 235 | 3.2 | 8.0 | 0.08 | 0.25 | 0.25 | 95 | 1007.2 |
| 20260506202538 | 16 | 264 | 4.8 | 11.3 | 0.10 | 0.23 | 0.23 | 95 | 1007.1 |
| 20260506201518 | 16 | 129 | 3.2 | 9.7 | 0.10 | 0.20 | 0.20 | 95 | 1007.1 |
| 20260506200518 | 16 | 248 | 3.2 | 12.9 | 0.10 | 0.20 | 0.20 | 94 | 1007.1 |
| 20260506195518 | 16 | 234 | 4.8 | 12.9 | 0.13 | 0.20 | 0.20 | 93 | 1007.1 |
| 20260506194519 | 16 | 207 | 3.2 | 11.3 | 0.15 | 0.20 | 0.20 | 91 | 1007.2 |
| 20260506193519 | 17 | 273 | 6.4 | 14.5 | 0.13 | 0.15 | 0.15 | 88 | 1007.2 |
| 20260506192537 | 17 | 134 | 4.8 | 16.1 | 0.13 | 0.13 | 0.13 | 87 | 1007.3 |
| 20260506191519 | 17 | 230 | 1.6 | 11.3 | 0.13 | 0.13 | 0.13 | 85 | 1007.2 |
| 20260506190520 | 18 | 248 | 3.2 | 9.7 | 0.10 | 0.10 | 0.10 | 81 | 1007.3 |
| 20260506185540 | 19 | 164 | 4.8 | 14.5 | 0.08 | 0.08 | 0.08 | 76 | 1007.4 |
| 20260506184537 | 20 | 258 | 6.4 | 12.9 | 0.05 | 0.05 | 0.05 | 73 | 1007.5 |
| 20260506183517 | 20 | 258 | 4.8 | 14.5 | 0.05 | 0.05 | 0.05 | 70 | 1007.5 |
| 20260506182520 | 21 | 168 | 6.4 | 19.3 | 0.03 | 0.03 | 0.03 | 67 | 1007.5 |
| 20260506181520 | 21 | 250 | 3.2 | 11.3 | 0.00 | 0.00 | 0.00 | 63 | 1007.4 |
| 20260506180520 | 21 | 137 | 6.4 | 16.1 | 0.00 | 0.00 | 0.00 | 61 | 1007.4 |
| 20260506175537 | 21 | 153 | 8.0 | 17.7 | 0.00 | 0.00 | 0.00 | 60 | 1007.5 |
| 20260506174517 | 22 | 198 | 6.4 | 12.9 | 0.00 | 0.00 | 0.00 | 59 | 1007.5 |
| 20260506173521 | 22 | 138 | 4.8 | 16.1 | 0.00 | 0.00 | 0.00 | 59 | 1007.5 |
| 20260506172517 | 22 | 185 | 8.0 | 16.1 | 0.00 | 0.00 | 0.00 | 59 | 1007.7 |
| 20260506171519 | 22 | 210 | 6.4 | 17.7 | 0.00 | 0.00 | 0.00 | 58 | 1007.8 |
| 20260506170518 | 22 | 213 | 4.8 | 12.9 | 0.00 | 0.00 | 0.00 | 58 | 1007.6 |
| 20260506165538 | 22 | 197 | 6.4 | 19.3 | 0.00 | 0.00 | 0.00 | 59 | 1007.8 |
| 20260506164518 | 21 | 234 | 6.4 | 16.1 | 0.00 | 0.00 | 0.00 | 60 | 1007.9 |
| 20260506163518 | 21 | 249 | 6.4 | 12.9 | 0.00 | 0.00 | 0.00 | 61 | 1008.1 |
| 20260506162519 | 21 | 253 | 6.4 | 19.3 | 0.00 | 0.00 | 0.00 | 62 | 1008.2 |
| 20260506161519 | 21 | 238 | 6.4 | 12.9 | 0.00 | 0.00 | 0.00 | 62 | 1008.4 |
| 20260506160539 | 21 | 164 | 8.0 | 19.3 | 0.00 | 0.00 | 0.00 | 62 | 1008.6 |
| 20260506155539 | 21 | 209 | 4.8 | 11.3 | 0.00 | 0.00 | 0.00 | 62 | 1008.7 |
| 20260506154519 | 21 | 266 | 6.4 | 12.9 | 0.00 | 0.00 | 0.00 | 62 | 1008.9 |
| 20260506153519 | 21 | 167 | 8.0 | 20.9 | 0.00 | 0.00 | 0.00 | 62 | 1009.0 |
| 20260506152537 | 21 | 188 | 8.0 | 20.9 | 0.00 | 0.00 | 0.00 | 62 | 1009.2 |
| 20260506151521 | 21 | 207 | 6.4 | 19.3 | 0.00 | 0.00 | 0.00 | 63 | 1009.2 |
| 20260506150540 | 21 | 135 | 6.4 | 14.5 | 0.00 | 0.00 | 0.00 | 63 | 1009.2 |
| 20260506145519 | 21 | 212 | 4.8 | 12.9 | 0.00 | 0.00 | 0.00 | 65 | 1009.4 |
| 20260506144517 | 21 | 198 | 6.4 | 17.7 | 0.00 | 0.00 | 0.00 | 66 | 1009.4 |
| 20260506143517 | 21 | 129 | 4.8 | 9.7 | 0.00 | 0.00 | 0.00 | 67 | 1009.3 |
| 20260506142521 | 20 | 156 | 4.8 | 14.5 | 0.00 | 0.00 | 0.00 | 68 | 1009.3 |
| 20260506141520 | 20 | 126 | 4.8 | 11.3 | 0.00 | 0.00 | 0.00 | 70 | 1009.2 |
| 20260506140539 | 20 | 241 | 4.8 | 12.9 | 0.00 | 0.00 | 0.00 | 70 | 1009.3 |
| 20260506135539 | 20 | 244 | 4.8 | 14.5 | 0.00 | 0.00 | 0.00 | 71 | 1009.4 |
| 20260506134517 | 19 | 143 | 3.2 | 11.3 | 0.00 | 0.00 | 0.00 | 73 | 1009.4 |
| 20260506133538 | 19 | 119 | 4.8 | 12.9 | 0.00 | 0.00 | 0.00 | 74 | 1009.7 |
| 20260506132518 | 18 | 211 | 3.2 | 12.9 | 0.00 | 0.00 | 0.00 | 75 | 1010.0 |
| 20260506131518 | 18 | 219 | 3.2 | 9.7 | 0.00 | 0.00 | 0.00 | 76 | 1010.0 |
| 20260506130519 | 18 | 158 | 4.8 | 11.3 | 0.00 | 0.00 | 0.00 | 76 | 1010.0 |
| 20260506125518 | 18 | 215 | 4.8 | 9.7 | 0.00 | 0.00 | 0.00 | 77 | 1009.9 |
| 20260506124518 | 18 | 133 | 4.8 | 12.9 | 0.00 | 0.00 | 0.00 | 77 | 1009.9 |
| 20260506123518 | 18 | 187 | 4.8 | 11.3 | 0.00 | 0.00 | 0.00 | 77 | 1010.0 |
| 20260506122518 | 17 | 133 | 3.2 | 8.0 | 0.00 | 0.00 | 0.00 | 80 | 1010.1 |
| 20260506121519 | 17 | 266 | 3.2 | 9.7 | 0.00 | 0.00 | 0.00 | 79 | 1010.2 |
| 20260506120525 | 17 | 136 | 3.2 | 4.8 | 0.00 | 0.00 | 0.00 | 80 | 1010.0 |
| 20260506115526 | 16 | 117 | 3.2 | 6.4 | 0.00 | 0.00 | 0.00 | 81 | 1010.2 |
| 20260506114519 | 16 | 138 | 3.2 | 12.9 | 0.00 | 0.00 | 0.00 | 81 | 1010.3 |
| 20260506113525 | 16 | 239 | 3.2 | 8.0 | 0.00 | 0.00 | 0.00 | 81 | 1010.5 |
| 20260506112520 | 16 | 181 | 4.8 | 9.7 | 0.00 | 0.00 | 0.00 | 81 | 1010.7 |
| 20260506111525 | 16 | 112 | 3.2 | 6.4 | 0.00 | 0.00 | 0.00 | 81 | 1010.3 |
| 20260506110525 | 16 | 116 | 3.2 | 6.4 | 0.00 | 0.00 | 0.00 | 82 | 1010.4 |
| 20260506105525 | 16 | 256 | 3.2 | 8.0 | 0.00 | 0.00 | 0.00 | 83 | 1010.4 |
| 20260506104525 | 15 | 275 | 3.2 | 8.0 | 0.00 | 0.00 | 0.00 | 84 | 1010.4 |
| 20260506103527 | 15 | 138 | 3.2 | 6.4 | 0.00 | 0.00 | 0.00 | 84 | 1010.4 |
| 20260506102525 | 15 | 230 | 3.2 | 6.4 | 0.00 | 0.00 | 0.00 | 83 | 1010.5 |
| 20260506101526 | 15 | 97 | 3.2 | 6.4 | 0.00 | 0.00 | 0.00 | 83 | 1010.4 |
| 20260506100528 | 15 | 254 | 3.2 | 4.8 | 0.00 | 0.00 | 0.00 | 83 | 1010.3 |
| 20260506095526 | 15 | 132 | 3.2 | 8.0 | 0.00 | 0.00 | 0.00 | 83 | 1010.4 |
| 20260506094526 | 15 | 133 | 3.2 | 6.4 | 0.00 | 0.00 | 0.00 | 84 | 1010.1 |
| 20260506093526 | 15 | 246 | 3.2 | 4.8 | 0.00 | 0.00 | 0.00 | 84 | 1010.2 |
| 20260506092526 | 15 | 259 | 1.6 | 4.8 | 0.00 | 0.00 | 0.00 | 83 | 1010.3 |
| 20260506091650 | 15 | 275 | 3.2 | 6.4 | 0.00 | 0.00 | 0.00 | 82 | 1010.2 |
| 20260506090528 | 15 | 107 | 1.6 | 8.0 | 0.00 | 0.00 | 0.00 | 82 | 1010.3 |
| 20260506085526 | 16 | 290 | 3.2 | 8.0 | 0.00 | 0.00 | 0.00 | 81 | 1010.4 |
| 20260506084521 | 16 | 203 | 3.2 | 9.7 | 0.00 | 0.00 | 0.00 | 80 | 1010.4 |
| 20260506083522 | 16 | 181 | 3.2 | 9.7 | 0.00 | 0.00 | 0.00 | 80 | 1010.4 |
| 20260506082527 | 16 | 196 | 4.8 | 8.0 | 0.00 | 0.00 | 0.00 | 80 | 1010.3 |
| 20260506081521 | 16 | 122 | 4.8 | 8.0 | 0.00 | 0.00 | 0.00 | 79 | 1010.3 |
| 20260506080530 | 16 | 194 | 3.2 | 4.8 | 0.00 | 0.00 | 0.00 | 79 | 1010.3 |
| 20260506073523 | 16 | 232 | 4.8 | 11.3 | 0.00 | 0.00 | 0.00 | 77 | 1010.3 |
| 20260506072522 | 17 | 260 | 3.2 | 9.7 | 0.00 | 0.00 | 0.00 | 76 | 1010.2 |
| 20260506071547 | 17 | 265 | 3.2 | 8.0 | 0.00 | 0.00 | 0.00 | 75 | 1010.1 |
| 20260506070525 | 17 | 228 | 3.2 | 12.9 | 0.00 | 0.00 | 0.00 | 74 | 1010.1 |
| 20260506061517 | 18 | 139 | 4.8 | 14.5 | 0.00 | 0.00 | 0.00 | 71 | 1009.8 |